Weather History for Montreal, QC

Change the Weather History Date:

Monday, October 8, 2012

  Actual Average Record
Temperature  
Mean Temperature 44 °F -  
Max Temperature 54 °F 57 °F 75 °F (2004)
Min Temperature 34 °F 41 °F 32 °F (2002)
Degree Days  
Heating Degree Days 21    
Moisture  
Dew Point 34 °F    
Average Humidity 65    
Maximum Humidity 100    
Minimum Humidity 30    
Precipitation  
Precipitation 0.00 in - - ()
Sea Level Pressure  
Sea Level Pressure 30.20 in    
Wind  
Wind Speed 5 mph ()    
Max Wind Speed 12 mph    
Max Gust Speed -    
Visibility 15.0 miles    
Events Rain    
Averages and records for this station are not official NWS values.
T = Trace of Precipitation, MM = Missing Value Source: Averaged Metar Reports

Daily Weather History Graph

Daily Weather History Graph

Search for Another Location

Airport:

Trip Planner

Search our weather history database for the weather conditions in past years. The results will help you decide how hot, cold, wet, or windy it might be!

Date:

Astronomy

Oct. 08, 2012 Rise Set
Actual Time 7:02 AM EDT 6:21 PM EDT
Civil Twilight 6:33 AM EDT 6:50 PM EDT
Nautical Twilight 5:58 AM EDT 7:25 PM EDT
Astronomical Twilight 5:24 AM EDT 7:59 PM EDT
Moon No Moon Rise 2:26 PM EDT (10/8)
Length of Visible Light 12h 17m
Length of Day
11h 18m
Waning Gibbous, 46% of the Moon is Illuminated
Oct 8
Waning Gibbous
Oct 15
New
Oct 21
First Quarter
Oct 29
Full
Nov 6
Last Quarter

Hourly Weather History & Observations

Time (EDT) Temp. Windchill Dew Point Humidity Pressure Visibility Wind Dir Wind Speed Gust Speed Precip Events Conditions
12:00 AM 44.6 °F 39.7 °F 33.8 °F 66% 30.09 in 15.0 mi West 9.2 mph - N/A Rain Light Rain Showers
1:00 AM 42.8 °F 39.3 °F 37.4 °F 81% 30.10 in 15.0 mi SW 5.8 mph - N/A Rain Light Rain Showers
1:31 AM 44.6 °F 42.2 °F - N/A% - 15.0 mi SW 4.6 mph - N/A   Mostly Cloudy
1:55 AM 44.6 °F 43.1 °F - N/A% - 15.0 mi West 3.5 mph - N/A Rain Light Rain Showers
2:00 AM 43 °F - 37 °F 73% 30.11 in 15 mi WSW 3.5 mph - - Rain Light Rain Showers
2:00 AM 42.8 °F 40.1 °F 37.4 °F 81% 30.11 in 15.0 mi WSW 4.6 mph - N/A Rain Light Rain Showers
2:22 AM 42.8 °F 40.1 °F - N/A% - 15.0 mi West 4.6 mph - N/A   Mostly Cloudy
3:00 AM 41.0 °F 39.0 °F 37.4 °F 87% 30.11 in 15.0 mi West 3.5 mph - N/A   Mostly Cloudy
4:00 AM 41.0 °F - 37.4 °F 87% 30.11 in 15.0 mi Calm Calm - N/A   Partly Cloudy
5:00 AM 39.2 °F 37.0 °F 35.6 °F 87% 30.13 in 15.0 mi NW 3.5 mph - N/A   Partly Cloudy
6:00 AM 37.4 °F - 37.4 °F 100% 30.14 in 15.0 mi Calm Calm - N/A   Partly Cloudy
7:00 AM 35.6 °F 30.7 °F 35.6 °F 100% 30.18 in 15.0 mi NW 5.8 mph - N/A   Partly Cloudy
8:00 AM 36 °F - 34 °F 91% 30.21 in 28 mi NW 3.5 mph - -   Partly Cloudy
8:00 AM 37.4 °F 34.9 °F 33.8 °F 87% 30.21 in 30.0 mi NW 3.5 mph - N/A   Partly Cloudy
9:00 AM 41.0 °F 38.0 °F 33.8 °F 76% 30.23 in 30.0 mi North 4.6 mph - N/A   Partly Cloudy
10:00 AM 44.6 °F - 33.8 °F 66% 30.24 in 30.0 mi North 2.3 mph - N/A   Partly Cloudy
11:00 AM 48.2 °F - 28.4 °F 46% 30.25 in 30.0 mi SW 4.6 mph - N/A   Partly Cloudy
12:00 PM 50.0 °F - 30.2 °F 47% 30.24 in 30.0 mi SSW 5.8 mph - N/A   Partly Cloudy
1:00 PM 51.8 °F - 28.4 °F 41% 30.24 in 30.0 mi SW 8.1 mph - N/A   Partly Cloudy
2:00 PM 52 °F - 30 °F 30% 30.24 in 28 mi SSW 8.1 mph - -   Scattered Clouds
2:00 PM 51.8 °F - 30.2 °F 44% 30.24 in 30.0 mi SSW 8.1 mph - N/A   Partly Cloudy
3:00 PM 53.6 °F - 30.2 °F 41% 30.23 in 30.0 mi SW 11.5 mph - N/A   Partly Cloudy
4:00 PM 53.6 °F - 32.0 °F 44% 30.22 in 30.0 mi SW 5.8 mph - N/A   Mostly Cloudy
5:00 PM 53.6 °F - 32.0 °F 44% 30.23 in 30.0 mi SW 8.1 mph - N/A   Mostly Cloudy
6:00 PM 53.6 °F - 30.2 °F 41% 30.24 in 30.0 mi WSW 5.8 mph - N/A   Overcast
7:00 PM 51.8 °F - 30.2 °F 44% 30.25 in 15.0 mi South 4.6 mph - N/A   Mostly Cloudy
8:00 PM 49 °F - 35 °F 46% 30.27 in 15 mi SSE 8.1 mph - -   Scattered Clouds
8:00 PM 50.0 °F - 35.6 °F 58% 30.27 in 15.0 mi SE 9.2 mph - N/A   Scattered Clouds
9:00 PM 46.4 °F 44.3 °F 35.6 °F 66% 30.27 in 15.0 mi ESE 4.6 mph - N/A   Partly Cloudy
10:00 PM 44.6 °F 41.4 °F 37.4 °F 76% 30.28 in 15.0 mi SE 5.8 mph - N/A   Partly Cloudy
11:00 PM 46.4 °F - 35.6 °F 66% 30.28 in 15.0 mi SE 2.3 mph - N/A   Clear